Location: StarHub Observatory
(35.2598°N, 77.5855°W)
Time: 05:41:26
(UTC-05:00)

Hubble Space Telescope - Visible Passes

Search period start: 01 December 2021 00:00
Search period end: 11 December 2021 00:00
Orbit: 534 x 538 km, 28.5° (Epoch: 30 November)

Date Brightness Start Highest point End Pass type
(mag) Time Alt. Az. Time Alt. Az. Time Alt. Az.
01 Dec 2.2 05:25:24 22° SW 05:26:37 26° S 05:30:04 10° SE visible
02 Dec 2.3 05:14:56 23° SSW 05:15:23 24° SSW 05:18:43 10° SE visible
03 Dec 2.6 05:04:28 21° S 05:04:28 21° S 05:07:18 10° SE visible
04 Dec 3.0 04:54:01 17° S 04:54:01 17° S 04:55:48 10° SSE visible
05 Dec 3.4 04:43:35 12° SSE 04:43:35 12° SSE 04:44:12 10° SSE visible
